• In Uzbekistan
  • List of Countries
  • For 7 days
  • Water Temperature
  • Weather Map
  • Weather Widgets
  • user-avatar
    Login

    Hourly Weather Hanoi

    Today, 16 September, Monday

    Time Temperature Precipitation Wind Pressure Humidity
    00:00 +28°C° 0.6 mm 1 mps 755 mmHg 87%
    01:00 +27°C° 0 mm 1 mps 756 mmHg 87%
    02:00 +27°C° 0.1 mm 1 mps 755 mmHg 88%
    03:00 +27°C° 0.1 mm 1 mps 755 mmHg 88%
    04:00 +27°C° 0.1 mm 1 mps 754 mmHg 89%
    05:00 +27°C° 0 mm 1 mps 755 mmHg 88%
    06:00 +28°C° 0 mm 1 mps 755 mmHg 87%
    07:00 +28°C° 0 mm 1 mps 756 mmHg 87%
    08:00 +29°C° 0 mm 1 mps 756 mmHg 80%
    09:00 +31°C° 0 mm 1 mps 756 mmHg 74%
    10:00 +33°C° 0 mm 1 mps 755 mmHg 68%
    11:00 +34°C° 0 mm 1 mps 755 mmHg 63%
    12:00 +35°C° 0 mm 1 mps 754 mmHg 59%
    13:00 +34°C° 0 mm 0 mps 753 mmHg 55%
    14:00 +36°C° 0.2 mm 1 mps 753 mmHg 56%
    15:00 +36°C° 0.2 mm 1 mps 753 mmHg 57%
    16:00 +35°C° 0.2 mm 1 mps 752 mmHg 58%
    17:00 +35°C° 0.2 mm 2 mps 753 mmHg 64%
    18:00 +32°C° 0.2 mm 2 mps 753 mmHg 71%
    19:00 +30°C° 0.2 mm 2 mps 753 mmHg 78%
    20:00 +30°C° 0 mm 2 mps 754 mmHg 80%
    21:00 +29°C° 0 mm 2 mps 755 mmHg 82%
    22:00 +29°C° 0 mm 2 mps 756 mmHg 84%
    23:00 +28°C° 0 mm 2 mps 755 mmHg 84%

    Tomorrow, 17 September, Tuesday

    Time Temperature Precipitation Wind Pressure Humidity
    00:00 +28°C° 0 mm 1 mps 755 mmHg 85%
    01:00 +28°C° 0 mm 1 mps 755 mmHg 85%
    02:00 +28°C° 0 mm 1 mps 755 mmHg 86%
    03:00 +28°C° 0 mm 1 mps 755 mmHg 86%
    04:00 +25°C° 0 mm 0 mps 755 mmHg 87%
    05:00 +28°C° 0 mm 1 mps 755 mmHg 86%
    06:00 +28°C° 0 mm 1 mps 756 mmHg 85%
    07:00 +29°C° 0 mm 1 mps 756 mmHg 84%
    08:00 +30°C° 0 mm 1 mps 756 mmHg 77%
    09:00 +30°C° 0 mm 0 mps 757 mmHg 69%
    10:00 +32°C° 0 mm 0 mps 757 mmHg 62%
    11:00 +35°C° 0 mm 1 mps 756 mmHg 58%
    12:00 +35°C° 0 mm 1 mps 755 mmHg 54%
    13:00 +36°C° 0 mm 1 mps 755 mmHg 49%
    14:00 +36°C° 0 mm 1 mps 754 mmHg 50%
    15:00 +36°C° 0 mm 1 mps 754 mmHg 51%
    16:00 +36°C° 0 mm 1 mps 754 mmHg 52%
    17:00 +34°C° 0 mm 1 mps 754 mmHg 56%
    18:00 +33°C° 0 mm 1 mps 755 mmHg 61%
    19:00 +32°C° 0 mm 1 mps 755 mmHg 65%
    20:00 +31°C° 0.3 mm 1 mps 756 mmHg 69%
    21:00 +30°C° 0.3 mm 1 mps 756 mmHg 73%
    22:00 +29°C° 0.3 mm 2 mps 757 mmHg 77%
    23:00 +29°C° 1.9 mm 1 mps 757 mmHg 81%

    Day after tomorrow, 18 September, Wednesday

    Time Temperature Precipitation Wind Pressure Humidity
    00:00 +28°C° 1.9 mm 1 mps 757 mmHg 84%
    01:00 +27°C° 1.9 mm 1 mps 756 mmHg 87%
    02:00 +27°C° 1.3 mm 1 mps 756 mmHg 87%
    03:00 +27°C° 1.3 mm 1 mps 756 mmHg 87%
    04:00 +25°C° 1.3 mm 0 mps 756 mmHg 87%
    05:00 +25°C° 1.2 mm 0 mps 757 mmHg 88%
    06:00 +26°C° 1.2 mm 0 mps 757 mmHg 88%
    07:00 +26°C° 1.2 mm 0 mps 758 mmHg 88%
    08:00 +29°C° 0.6 mm 1 mps 758 mmHg 85%
    09:00 +30°C° 0.6 mm 1 mps 758 mmHg 82%
    10:00 +31°C° 0.6 mm 1 mps 758 mmHg 78%
    11:00 +32°C° 1.5 mm 1 mps 758 mmHg 74%
    12:00 +32°C° 1.5 mm 1 mps 757 mmHg 70%
    13:00 +33°C° 1.5 mm 1 mps 757 mmHg 65%
    14:00 +33°C° 1.5 mm 1 mps 756 mmHg 66%
    15:00 +33°C° 1.5 mm 1 mps 756 mmHg 67%
    16:00 +33°C° 1.5 mm 1 mps 756 mmHg 68%
    17:00 +32°C° 1.7 mm 1 mps 756 mmHg 73%
    18:00 +30°C° 1.7 mm 1 mps 757 mmHg 78%
    19:00 +29°C° 1.7 mm 1 mps 757 mmHg 83%
    20:00 +29°C° 1.1 mm 1 mps 757 mmHg 83%
    21:00 +29°C° 1.1 mm 1 mps 758 mmHg 83%
    22:00 +29°C° 1.1 mm 1 mps 758 mmHg 84%
    23:00 +28°C° 0.9 mm 1 mps 758 mmHg 84%

    19 September, Thursday

    Time Temperature Precipitation Wind Pressure Humidity
    00:00 +28°C° 0.9 mm 1 mps 758 mmHg 85%
    01:00 +28°C° 0.9 mm 1 mps 758 mmHg 85%
    02:00 +28°C° 0.7 mm 1 mps 757 mmHg 86%
    03:00 +27°C° 0.7 mm 1 mps 757 mmHg 86%
    04:00 +27°C° 0.7 mm 1 mps 757 mmHg 87%
    05:00 +27°C° 0.7 mm 1 mps 758 mmHg 86%
    06:00 +28°C° 0.7 mm 2 mps 758 mmHg 85%
    07:00 +28°C° 0.7 mm 2 mps 758 mmHg 84%
    08:00 +30°C° 1.3 mm 2 mps 758 mmHg 79%
    09:00 +31°C° 1.3 mm 2 mps 758 mmHg 74%
    10:00 +32°C° 1.3 mm 2 mps 758 mmHg 69%
    11:00 +32°C° 2.4 mm 1 mps 757 mmHg 67%
    12:00 +33°C° 2.4 mm 1 mps 757 mmHg 66%
    13:00 +34°C° 2.4 mm 1 mps 756 mmHg 64%
    14:00 +34°C° 2.8 mm 2 mps 756 mmHg 68%
    15:00 +34°C° 2.8 mm 2 mps 755 mmHg 71%
    16:00 +33°C° 2.8 mm 3 mps 755 mmHg 74%
    17:00 +31°C° 0.9 mm 3 mps 755 mmHg 78%
    18:00 +29°C° 0.9 mm 2 mps 756 mmHg 81%
    19:00 +28°C° 0.9 mm 2 mps 756 mmHg 85%
    20:00 +28°C° 0.1 mm 2 mps 757 mmHg 85%
    21:00 +28°C° 0.1 mm 1 mps 757 mmHg 86%
    22:00 +28°C° 0.1 mm 1 mps 758 mmHg 86%
    23:00 +27°C° 0.1 mm 1 mps 758 mmHg 86%

    20 September, Friday

    Time Temperature Precipitation Wind Pressure Humidity
    00:00 +25°C° 0.1 mm 0 mps 757 mmHg 86%
    01:00 +25°C° 0.1 mm 0 mps 757 mmHg 86%
    02:00 +25°C° 0.1 mm 0 mps 757 mmHg 87%
    03:00 +25°C° 0.1 mm 0 mps 757 mmHg 87%
    04:00 +27°C° 0.1 mm 1 mps 756 mmHg 88%
    05:00 +27°C° 0 mm 1 mps 757 mmHg 87%
    06:00 +27°C° 0 mm 1 mps 757 mmHg 87%
    07:00 +28°C° 0 mm 1 mps 757 mmHg 86%
    08:00 +29°C° 0.3 mm 1 mps 757 mmHg 80%
    09:00 +31°C° 0.3 mm 1 mps 757 mmHg 73%
    10:00 +32°C° 0.3 mm 2 mps 757 mmHg 67%
    11:00 +34°C° 0.3 mm 2 mps 757 mmHg 64%
    12:00 +35°C° 0.3 mm 2 mps 756 mmHg 61%
    13:00 +35°C° 0.3 mm 2 mps 755 mmHg 58%
    14:00 +34°C° 0.2 mm 1 mps 755 mmHg 57%
    15:00 +34°C° 0.2 mm 1 mps 755 mmHg 57%
    16:00 +34°C° 0.2 mm 1 mps 754 mmHg 56%
    17:00 +33°C° 0.1 mm 1 mps 755 mmHg 62%
    18:00 +31°C° 0.1 mm 2 mps 755 mmHg 68%
    19:00 +30°C° 0.1 mm 2 mps 756 mmHg 74%
    20:00 +29°C° 1 mm 2 mps 757 mmHg 78%
    21:00 +28°C° 1 mm 2 mps 757 mmHg 83%
    22:00 +27°C° 1 mm 1 mps 758 mmHg 87%
    23:00 +27°C° 1.4 mm 1 mps 758 mmHg 86%

    21 September, Saturday

    Time Temperature Precipitation Wind Pressure Humidity
    00:00 +27°C° 1.4 mm 1 mps 758 mmHg 85%
    01:00 +27°C° 1.4 mm 1 mps 757 mmHg 85%
    02:00 +27°C° 0.1 mm 2 mps 757 mmHg 84%
    03:00 +26°C° 0.1 mm 2 mps 757 mmHg 83%
    04:00 +26°C° 0.1 mm 3 mps 757 mmHg 83%
    05:00 +26°C° 0 mm 3 mps 757 mmHg 82%
    06:00 +26°C° 0 mm 3 mps 758 mmHg 82%
    07:00 +27°C° 0 mm 3 mps 758 mmHg 81%
    08:00 +28°C° 0 mm 3 mps 758 mmHg 73%
    09:00 +30°C° 0 mm 4 mps 758 mmHg 66%
    10:00 +32°C° 0 mm 4 mps 758 mmHg 58%
    11:00 +33°C° 0 mm 4 mps 758 mmHg 56%
    12:00 +33°C° 0 mm 4 mps 757 mmHg 53%
    13:00 +34°C° 0 mm 3 mps 757 mmHg 51%
    14:00 +34°C° 0 mm 3 mps 756 mmHg 53%
    15:00 +34°C° 0 mm 2 mps 756 mmHg 55%
    16:00 +34°C° 0 mm 2 mps 755 mmHg 57%
    17:00 +32°C° 0 mm 2 mps 756 mmHg 60%
    18:00 +31°C° 0 mm 2 mps 757 mmHg 63%
    19:00 +29°C° 0 mm 2 mps 757 mmHg 65%
    20:00 +29°C° 0 mm 2 mps 758 mmHg 66%
    21:00 +29°C° 0 mm 2 mps 759 mmHg 66%
    22:00 +28°C° 0 mm 2 mps 759 mmHg 67%
    23:00 +28°C° 0 mm 2 mps 759 mmHg 67%
    Show more